Location: Baptist Memorial Hospital
(34.4976°N, 89.0284°W)
Time: 09:32:29
(UTC+00:00)

NOAA 12 - Pass Details

Date: 29 October 2020
Orbit: 796 x 815 km, 98.5° (Epoch: 25 November)

Event Time Altitude Azimuth Distance (km) Brightness Sun altitude
Rises 23:20:52 0° 161° (SSE) 3,303 7.2 -4.0°
Reaches altitude 10° 23:23:12 10° 159° (SSE) 2,379 6.5 -4.5°
Maximum altitude 23:28:26 74° 75° (ENE) 844 4.1 -5.5°
Drops below altitude 10° 23:33:45 10° 351° (N) 2,405 6.5 -6.6°
Sets 23:36:06 0° 350° (N) 3,342 7.3 -7.1°
